Terminal Aerodrome Forecast
Issued by NWS

Home | Current Version | Previous Version | Graphics & Text | Print | Product List | Glossary Off
Versions: 1 2 3 4 5 6 7 8 9 10 11 12 13 14 15 16 17 18 19 20 21 22 23 24 25 26 27 28 29 30 31 32 33 34 35 36

000
FTUS43 KDDC 010951 AAB
TAFHYS
TAF AMD
KHYS 010951Z 0110/0206 VRB05KT 1/2SM FG OVC001
     FM011400 VRB05KT 2SM BR BKN008
     FM011600 02010KT P6SM SCT100=

USA.gov is the U.S. government's official web portal to all federal, state and local government web resources and services.